Find SBIRS GEO-1

NORAD ID: 37481 Int'l Des: 2011-019 Owner: AFSPC Country: US operational
HEOCIRCULARGSO

Live-Position

3D-Globus wird geladen...

Über SBIRS GEO-1

Beschreibung wird geladen...

Nächste Überflüge

Passes for default location (London). Set your location on the main map for personalized predictions.

Höhenverlauf

Loading altitude history...

Zweizeiliger Elementsatz

1 37481U 11019A 26106.99811315 .00000109 00000-0 00000-0 0 9997
2 37481 4.4032 53.1191 0002368 329.4405 233.6968 1.00272394 54783
Epoch: 16. Apr. 2026 • Age: 18 hours

Aktueller Status

Höhe 35794.1 km
Geschwindigkeit 3.07 km/s
Subsatellitenpunkt 3.82°N, 51.88°E
Startdatum 7. Mai 2011
Alter 14.9 years
Typ military

Technische Details

Klassifizierung Payload
Masse 4500.00 kg
Trockenmasse 2500.00 kg
Gesamtmasse 4500.00 kg
Länge 6.00 m
Durchmesser 2.50 m
Spannweite 25.00 m
Form Box + 2 Pan
Hersteller LMSS
Bus-Typ A2100
Phasenstatus In Orbit
Besitzer/Staat AFSPC/US

Most Searched